Time,TemperatureF,DewpointF,PressureIn,WindDirection,WindDirectionDegrees,WindSpeedMPH,WindSpeedGustMPH,Humidity,HourlyPrecipIn,Conditions,Clouds,dailyrainin,SolarRadiationWatts/m^2,SoftwareType,DateUTC
2013-09-17 00:00:00,38.0,37.0,-100.00,SSW,202,0.0,-999.0,95,-99.99,,,-99.99,0.000000,,2013-09-17 04:00:00,
2013-09-17 00:44:00,38.0,37.0,-100.00,SSW,202,0.0,-999.0,95,-99.99,,,-99.99,0.000000,,2013-09-17 04:44:00,
2013-09-17 00:54:00,38.0,37.0,-100.00,SSW,202,0.0,-999.0,95,-99.99,,,-99.99,0.000000,,2013-09-17 04:54:00,
2013-09-17 01:00:00,37.0,36.0,-100.00,SSW,202,0.0,-999.0,96,-99.99,,,-99.99,0.000000,,2013-09-17 05:00:00,
2013-09-17 01:42:00,37.0,36.0,-100.00,SSW,202,0.0,-999.0,96,-99.99,,,-99.99,0.000000,,2013-09-17 05:42:00,
2013-09-17 01:52:00,37.0,36.0,-100.00,SSW,202,0.0,-999.0,96,-99.99,,,-99.99,0.000000,,2013-09-17 05:52:00,
2013-09-17 02:00:00,38.0,37.0,-100.00,SSW,202,0.0,-999.0,96,-99.99,,,-99.99,0.000000,,2013-09-17 06:00:00,
2013-09-17 02:42:00,38.0,37.0,-100.00,SSW,202,0.0,-999.0,96,-99.99,,,-99.99,0.000000,,2013-09-17 06:42:00,
2013-09-17 02:52:00,38.0,37.0,-100.00,SSW,202,0.0,-999.0,96,-99.99,,,-99.99,0.000000,,2013-09-17 06:52:00,
2013-09-17 03:00:00,38.0,37.0,-100.00,SW,225,2.0,-999.0,96,-99.99,,,-99.99,0.000000,,2013-09-17 07:00:00,
2013-09-17 03:43:00,38.0,37.0,-100.00,SW,225,2.0,-999.0,96,-99.99,,,-99.99,0.000000,,2013-09-17 07:43:00,
2013-09-17 03:52:00,38.0,37.0,-100.00,SW,225,2.0,-999.0,96,-99.99,,,-99.99,0.000000,,2013-09-17 07:52:00,
2013-09-17 04:00:00,39.0,38.0,-100.00,SW,225,0.0,-999.0,95,-99.99,,,-99.99,0.000000,,2013-09-17 08:00:00,
2013-09-17 04:42:00,39.0,38.0,-100.00,SW,225,0.0,-999.0,95,-99.99,,,-99.99,0.000000,,2013-09-17 08:42:00,
2013-09-17 04:52:00,39.0,38.0,-100.00,SW,225,0.0,-999.0,95,-99.99,,,-99.99,0.000000,,2013-09-17 08:52:00,
2013-09-17 05:00:00,40.0,38.0,-100.00,SW,225,0.0,-999.0,93,-99.99,,,-99.99,0.000000,,2013-09-17 09:00:00,
2013-09-17 05:43:00,40.0,38.0,-100.00,SW,225,0.0,-999.0,93,-99.99,,,-99.99,0.000000,,2013-09-17 09:43:00,
2013-09-17 05:53:00,40.0,38.0,-100.00,SW,225,0.0,-999.0,93,-99.99,,,-99.99,0.000000,,2013-09-17 09:53:00,
2013-09-17 06:00:00,39.0,37.0,-100.00,SW,225,0.0,-999.0,93,-99.99,,,-99.99,0.000000,,2013-09-17 10:00:00,
2013-09-17 06:42:00,39.0,37.0,-100.00,SW,225,0.0,-999.0,93,-99.99,,,-99.99,0.000000,,2013-09-17 10:42:00,
2013-09-17 06:53:00,39.0,37.0,-100.00,SW,225,0.0,-999.0,93,-99.99,,,-99.99,0.000000,,2013-09-17 10:53:00,
2013-09-17 07:00:00,36.0,34.0,-100.00,SSW,202,0.0,-999.0,93,-99.99,,,-99.99,0.000000,,2013-09-17 11:00:00,
2013-09-17 07:43:00,36.0,34.0,-100.00,SSW,202,0.0,-999.0,93,-99.99,,,-99.99,0.000000,,2013-09-17 11:43:00,
2013-09-17 07:52:00,36.0,34.0,-100.00,SSW,202,0.0,-999.0,93,-99.99,,,-99.99,0.000000,,2013-09-17 11:52:00,
2013-09-17 08:00:00,34.0,33.0,-100.00,SW,225,0.0,-999.0,95,-99.99,,,-99.99,11.600000,,2013-09-17 12:00:00,
2013-09-17 08:42:00,34.0,33.0,-100.00,SW,225,0.0,-999.0,95,-99.99,,,-99.99,11.600000,,2013-09-17 12:42:00,
2013-09-17 08:52:00,34.0,33.0,-100.00,SW,225,0.0,-999.0,95,-99.99,,,-99.99,11.600000,,2013-09-17 12:52:00,
2013-09-17 09:00:00,40.0,38.0,-100.00,South,180,1.0,-999.0,93,-99.99,,,-99.99,151.960007,,2013-09-17 13:00:00,
2013-09-17 09:42:00,40.0,38.0,-100.00,South,180,1.0,-999.0,93,-99.99,,,-99.99,151.960007,,2013-09-17 13:42:00,
2013-09-17 09:52:00,40.0,38.0,-100.00,South,180,1.0,-999.0,93,-99.99,,,-99.99,151.960007,,2013-09-17 13:52:00,
2013-09-17 10:00:00,49.0,42.0,-100.00,SSW,202,4.0,-999.0,76,-99.99,,,-99.99,308.559998,,2013-09-17 14:00:00,
2013-09-17 10:42:00,49.0,42.0,-100.00,SSW,202,4.0,-999.0,76,-99.99,,,-99.99,308.559998,,2013-09-17 14:42:00,
2013-09-17 10:52:00,49.0,42.0,-100.00,SSW,202,4.0,-999.0,76,-99.99,,,-99.99,308.559998,,2013-09-17 14:52:00,
2013-09-17 12:00:00,57.0,47.0,-100.00,SSW,202,8.0,-999.0,68,-99.99,,,-99.99,578.840027,,2013-09-17 16:00:00,
2013-09-17 12:42:00,57.0,47.0,-100.00,SSW,202,8.0,-999.0,68,-99.99,,,-99.99,578.840027,,2013-09-17 16:42:00,
2013-09-17 12:54:00,57.0,47.0,-100.00,SSW,202,8.0,-999.0,68,-99.99,,,-99.99,578.840027,,2013-09-17 16:54:00,
2013-09-17 14:00:00,62.0,47.0,-100.00,South,180,8.0,-999.0,58,-99.99,,,-99.99,699.479980,,2013-09-17 18:00:00,
2013-09-17 14:42:00,62.0,47.0,-100.00,South,180,8.0,-999.0,58,-99.99,,,-99.99,699.479980,,2013-09-17 18:42:00,
2013-09-17 14:52:00,62.0,47.0,-100.00,South,180,8.0,-999.0,58,-99.99,,,-99.99,699.479980,,2013-09-17 18:52:00,
2013-09-17 16:00:00,63.0,48.0,-100.00,South,180,8.0,-999.0,58,-99.99,,,-99.99,597.400024,,2013-09-17 20:00:00,
2013-09-17 16:42:00,63.0,48.0,-100.00,South,180,8.0,-999.0,58,-99.99,,,-99.99,597.400024,,2013-09-17 20:42:00,
2013-09-17 16:52:00,63.0,48.0,-100.00,South,180,8.0,-999.0,58,-99.99,,,-99.99,597.400024,,2013-09-17 20:52:00,
2013-09-17 17:00:00,63.0,47.0,-100.00,South,180,9.0,-999.0,57,-99.99,,,-99.99,483.720001,,2013-09-17 21:00:00,
2013-09-17 17:44:00,63.0,47.0,-100.00,South,180,9.0,-999.0,57,-99.99,,,-99.99,483.720001,,2013-09-17 21:44:00,
2013-09-17 17:54:00,63.0,47.0,-100.00,South,180,9.0,-999.0,57,-99.99,,,-99.99,483.720001,,2013-09-17 21:54:00,
2013-09-17 18:00:00,62.0,47.0,-100.00,South,180,9.0,-999.0,58,-99.99,,,-99.99,337.559998,,2013-09-17 22:00:00,
2013-09-17 18:44:00,62.0,47.0,-100.00,South,180,9.0,-999.0,58,-99.99,,,-99.99,337.559998,,2013-09-17 22:44:00,
2013-09-17 18:53:00,62.0,47.0,-100.00,South,180,9.0,-999.0,58,-99.99,,,-99.99,337.559998,,2013-09-17 22:53:00,
2013-09-17 20:00:00,57.0,49.0,-100.00,South,180,6.0,-999.0,74,-99.99,,,-99.99,31.320000,,2013-09-18 00:00:00,
2013-09-17 20:42:00,57.0,49.0,-100.00,South,180,6.0,-999.0,74,-99.99,,,-99.99,31.320000,,2013-09-18 00:42:00,
2013-09-17 20:52:00,57.0,49.0,-100.00,South,180,6.0,-999.0,74,-99.99,,,-99.99,31.320000,,2013-09-18 00:52:00,
2013-09-17 22:00:00,52.0,47.0,-100.00,South,180,5.0,-999.0,84,-99.99,,,-99.99,0.000000,,2013-09-18 02:00:00,
2013-09-17 22:43:00,52.0,47.0,-100.00,South,180,5.0,-999.0,84,-99.99,,,-99.99,0.000000,,2013-09-18 02:43:00,
2013-09-17 22:52:00,52.0,47.0,-100.00,South,180,5.0,-999.0,84,-99.99,,,-99.99,0.000000,,2013-09-18 02:52:00,
2013-09-17 23:00:00,51.0,48.0,-100.00,South,180,5.0,-999.0,89,-99.99,,,-99.99,0.000000,,2013-09-18 03:00:00,
2013-09-17 23:44:00,51.0,48.0,-100.00,South,180,5.0,-999.0,89,-99.99,,,-99.99,0.000000,,2013-09-18 03:44:00,
2013-09-17 23:55:00,51.0,48.0,-100.00,South,180,5.0,-999.0,89,-99.99,,,-99.99,0.000000,,2013-09-18 03:55:00,